Location: Unspecified
(42.9300°N, 71.1866°W)
Time: 08:06:13
(UTC-04:00)

Okean 3 - Visible Passes

Search period start: 28 May 2015 00:00
Search period end: 07 June 2015 00:00
Orbit: 581 x 605 km, 82.5° (Epoch: 27 May)

Date Brightness Start Highest point End Pass type
(mag) Time Alt. Az. Time Alt. Az. Time Alt. Az.
28 May 4.0 04:21:28 10° N 04:25:43 63° E 04:29:54 10° SSE visible
29 May 3.5 04:30:35 10° N 04:34:53 83° W 04:39:07 10° S visible
30 May 6.4 03:04:07 10° NE 03:06:13 14° ENE 03:08:30 10° E visible
31 May 6.1 03:12:28 10° NNE 03:15:36 20° ENE 03:18:48 10° ESE visible
01 Jun 5.4 03:21:10 10° NNE 03:24:55 29° ENE 03:28:39 10° SE visible
02 Jun 4.6 03:30:05 10° N 03:34:10 44° ENE 03:38:13 10° SSE visible
03 Jun 3.7 03:39:06 10° N 03:43:22 70° E 03:47:34 10° SSE visible
04 Jun 3.4 03:48:15 10° NNW 03:52:30 75° W 03:56:42 10° S visible
05 Jun 6.2 02:21:32 10° NNE 02:23:54 15° ENE 02:26:25 10° ESE visible
05 Jun 3.8 03:57:31 10° NNW 04:01:36 47° W 04:05:39 10° SSW visible
06 Jun 5.7 02:30:00 10° NNE 02:33:15 22° ENE 02:36:35 10° ESE visible
06 Jun 4.4 04:06:55 10° NNW 04:10:41 31° W 04:14:21 10° SSW visible
